Location: Muncie
(40.1930°N, 85.3860°W)
Time: 23:42:45
(UTC-04:00)

Hubble Space Telescope - Pass Details

Date: 22 February 2026
Orbit: 476 x 478 km, 28.5° (Epoch: 16 March)

Event Time Altitude Azimuth Distance (km) Brightness Sun altitude
Exits shadow 05:15:57 12° 156° (SSE) 1,536 3.2 -25.4°
Drops below altitude 10° 05:16:38 10° 146° (SE) 1,636 3.5 -25.2°
Sets 05:19:52 0° 117° (ESE) 2,516 5.0 -24.6°
